Location: Borzechowo
(53.8876°N, 18.3492°E)
Time: 23:43:55
(UTC+01:00)

ISS - Visible Passes

Search period start: 23 January 2019 00:00
Search period end: 02 February 2019 00:00
Orbit: 404 x 410 km, 51.6° (Epoch: 24 January)

Date Brightness Start Highest point End Pass type
(mag) Time Alt. Az. Time Alt. Az. Time Alt. Az.
23 Jan -1.0 18:40:47 10° S 18:41:05 11° S 18:41:05 11° S visible
24 Jan -1.4 17:50:45 10° SSE 17:51:53 11° SE 17:52:03 11° SE visible
24 Jan -0.6 19:24:40 10° SW 19:24:47 11° SW 19:24:47 11° SW visible
25 Jan -2.1 18:33:40 10° SSW 18:35:41 24° S 18:35:41 24° S visible
26 Jan -2.0 17:42:50 10° SSW 17:45:18 20° SSE 17:46:30 16° ESE visible
26 Jan -1.2 19:18:09 10° WSW 19:19:14 18° WSW 19:19:14 18° WSW visible
27 Jan -3.0 18:26:57 10° SW 18:30:00 39° SSE 18:30:00 39° SSE visible
28 Jan -2.6 17:35:49 10° SW 17:38:46 30° SSE 17:40:43 17° ESE visible
28 Jan -1.7 19:11:45 10° WSW 19:13:26 27° WSW 19:13:26 27° WSW visible
29 Jan -3.5 18:20:25 10° WSW 18:23:38 52° S 18:24:07 47° SE visible
29 Jan -0.2 19:56:45 10° W 19:56:50 11° W 19:56:50 11° W visible
30 Jan -3.1 17:29:07 10° WSW 17:32:16 44° SSE 17:34:47 15° E visible
30 Jan -2.3 19:05:21 10° W 19:07:30 35° WSW 19:07:30 35° WSW visible
31 Jan -3.5 18:13:57 10° WSW 18:17:12 59° S 18:18:09 39° ESE visible
31 Jan -0.5 19:50:24 10° W 19:50:52 13° W 19:50:52 13° W visible
01 Feb -3.3 17:22:34 10° WSW 17:25:49 55° S 17:28:49 12° E visible
01 Feb -2.7 18:58:56 10° W 19:01:32 41° SW 19:01:32 41° SW visible
